Regional Weather Roundup
Issued by NWS Sterling, VA

Home | Current Version | Previous Version | Graphics & Text | Print | Product List | Glossary On
Versions: 1 2 3 4 5 6 7 8 9 10 11 12 13 14 15 16 17 18 19 20 21 22 23 24 25 26 27 28 29 30 31 32 33 34 35 36 37 38 39 40 41 42 43 44 45 46 47 48 49 50
000
ASUS41 KLWX 251611
RWRLWX

REGIONAL WEATHER ROUNDUP
NATIONAL WEATHER SERVICE BALTIMORE MD/WASHINGTON DC
1200 PM EDT MON JUL 25 2016

Note: "FAIR" indicates few or no clouds below 12,000 feet
with no significant weather and/or obstructions to visibility.
 TC=TEMPERATURE CELSIUS

 * =Non NWS site. Station does not report precipitation (e.g. rain,
    snow, etc.), thunder, or fog.

DCZ001-MDZ009-015-VAZ040>042-051-053>054-251700-
WASHINGTON METRO

CITY           SKY/WX    TMP DP  RH WIND       PRES   REMARKS
WASHINGTON NAT PTSUNNY   94  78  60 S10       29.96F HX 110
DULLES         PTSUNNY   94  72  48 S3        29.96F HX 102
ANDREWS AFB    SUNNY     93  76  57 VRB2      29.96F HX 104
FT BELVOIR     FAIR      94  76  54 S6        29.95F HX 107
QUANTICO       PTSUNNY   91  78  65 S12       29.97F HX 106
COLLEGE PARK*  FAIR      91  72  52 NW5       29.94F HX  98
LEESBURG*      FAIR      97  77  52 W6        29.98S HX 112
MANASSAS*      SUNNY     93  73  52 CALM      29.97S HX 102
GAITHERSBURG*  SUNNY     91  75  59 W6        30.01S HX 102

$$

MDZ006>007-011-014-251700-
BALTIMORE METRO

CITY           SKY/WX    TMP DP  RH WIND       PRES   REMARKS
BWI AIRPORT    MOSUNNY   94  73  50 SW5       29.94F HX 103
MD SCIENCE CTR   N/A     97  72  44 MISG      29.94S HX 105
MARTIN STATE   MOSUNNY   90  82  79 SE10      29.95F HX 111
ANNAPOLIS      SUNNY     91  78  65 SE5       29.94F HX 106
FORT MEADE*    SUNNY     91  75  59 S5        29.98S HX 102

$$

MDZ012-015-019>023-251700-
MARYLAND EASTERN SHORE

CITY           SKY/WX    TMP DP  RH WIND       PRES   REMARKS
OCEAN CITY     SUNNY     95  76  53 VRB6      29.96S HX 108
SALISBURY      SUNNY     91  76  61 SW14      29.96F HX 103
BAY BRIDGE AP* SUNNY     91  79  66 W7        29.95S HX 107
CAMBRIDGE*     SUNNY     90  77  66 CALM      29.95F HX 102
EASTON*        SUNNY     93  82  70 SW5       29.99F HX 117

$$

MDZ017>025-251700-
SOUTHERN MARYLAND

CITY           SKY/WX    TMP DP  RH WIND       PRES   REMARKS
PATUXENT RIVER CLOUDY    96  71  44 SW14      29.96F HX 103
ST INIGOES     SUNNY     94  75  54 SW9       29.96F HX 105
LEONARDTOWN*   SUNNY     91  70  49 SW10      29.98F HX  97

$$

MDZ003>005-251700-
NORTH CENTRAL MARYLAND

CITY           SKY/WX    TMP DP  RH WIND       PRES   REMARKS
FREDERICK*     SUNNY     93  75  55 SW8       29.99S HX 104
HAGERSTOWN APT SUNNY     91  73  55 SW10      29.97F HX  99

$$

MDZ501>502-251700-
WESTERN MARYLAND

CITY           SKY/WX    TMP DP  RH WIND       PRES   REMARKS
OAKLAND*       SUNNY     81  70  69 W7G16     30.13S
CUMBERLAND*    SUNNY     95  70  43 W6        30.01F HX 101

$$

VAZ025>031-251700-
SHENANDOAH VALLEY

CITY           SKY/WX    TMP DP  RH WIND       PRES   REMARKS
WINCHESTER*    FAIR      91  72  52 CALM      29.99S HX  98
FRONT ROYAL*   FAIR      90  73  58 CALM      29.99S HX  98
LURAY*         FAIR      90  73  58 SW6       30.01F HX  98
NEW MARKET*    FAIR     N/A N/A N/A CALM      29.99F
STAUNTON*      FAIR      89  73  58 CALM      30.05S HX  96
WAYNESBORO*    FAIR      89  70  53 CALM      30.06R HX  94

$$

WVZ021-048>050-054>055-251700-
EASTERN WEST VIRGINIA PANHANDLE

CITY           SKY/WX    TMP DP  RH WIND       PRES   REMARKS
MARTINSBURG    FAIR      95  73  48 VRB6      29.96F HX 104
PETERSBURG*    FAIR      94  72  48 SW9       30.00S HX 102

$$

VAZ036>039-050-251700-
CENTRAL FOOTHILLS

CITY           SKY/WX    TMP DP  RH WIND       PRES   REMARKS
CHARLOTTESVILL FAIR      96  72  45 CALM      29.99F HX 104
CULPEPER*      FAIR      93  78  60 W5        29.98F HX 108
ORANGE*          N/A     95  72  46 S5        30.01S HX 103
GORDONSVILLE*  FAIR      93  76  57 SW7       29.98F HX 105
WARRENTON*     FAIR      95  70  44 W3        29.98S HX 101

$$

VAZ055>057-251700-
NORTH AND CENTRAL PIEDMONT

CITY           SKY/WX    TMP DP  RH WIND       PRES   REMARKS
FREDERICKSBRG*   N/A     94  76  54 SW7       29.96F HX 107
STAFFORD*      FAIR      94  71  47 W6        30.01F HX 101

$$

NCZ024-NYZ072-PAZ021-071-VAZ022-071-251700-
OTHER REGIONAL OBSERVATIONS

CITY           SKY/WX    TMP DP  RH WIND       PRES   REMARKS
NEW YORK CITY  SUNNY     88  72  58 VRB3      29.93F HX  94
PHILADELPHIA   MOSUNNY   88  75  65 VRB7      29.93F HX  97
PITTSBURGH     MOSUNNY   88  72  58 SW8       29.97F HX  94
ROANOKE        FAIR      91  72  53 SW7       30.07S HX  98
RICHMOND       CLOUDY    91  75  59 SW10      29.99F HX 101
RALEIGH        MOSUNNY   92  78  63 S6        30.05S HX 107

$$

ANZ530>537-251700-
MARINE OBSERVATIONS

STATION/POSITION TIME  TEMP    WIND        PRES
                       AIR SEA DIR/SP/G
                 (UTC) (F)     (DEG/KT/KT) (MB)
THOMAS PT LIGHT  1600   85 83  170/  7/  7 1015.5F
BALT KEY BRIDGE  1542   87     110/  9/  9 1013.9F
COVE POINT       1542   92     280/  6/  9 1015.0F
LEWISETTA        1542   92 88  250/  9/ 12 1014.4F
SOLOMONS ISLAND  1542   91 84  250/ 14/ 17   N/A
PINEY POINT      1548          350/  6/  6   N/A

$$




USA.gov is the U.S. government's official web portal to all federal, state and local government web resources and services.